Dewpoint
8 7 9 9 6 5 11 13 14 12 11 12 13 13 14 14 14 14 14 13 13 12 12 12 12 12 12 12 12 12 13 13 14 14 14 14 12 13 14 15 15 15 16 15
5 6 4 3 3 6 7 13 13 12 12 11 12 14 12 12 13 13 13 13 13 13 13 13 12 12 12 12 12 12 12 12 13 13 13 12 11 12 15 14 15 15 15 15
7 5 2 2 5 7 8 11 11 11 12 11 13 14 14 13 11 11 11 11 12 11 11 11 12 12 12 11 12 12 12 12 13 13 12 10 11 14 14 14 14 14 15 15
4 2 1 -2 3 6 6 6 10 13 12 13 12 13 13 14 15 13 11 11 11 10 10 9 9 10 11 11 11 12 11 12 13 13 13 11 12 14 14 14 14 14 15 16
2 -4 -4 -4 -4 4 6 10 12 11 11 12 12 12 12 14 15 14 11 12 11 10 9 9 9 9 9 10 10 10 11 11 12 13 13 13 12 14 15 15 14 15 15 15
-3 -3 -5 -4 -4 3 6 6 5 6 8 10 9 9 11 14 13 14 12 10 10 11 10 9 8 9 10 10 10 10 11 11 12 13 13 13 11 12 14 15 15 14 15 15
-5 -2 -6 -5 -4 -1 4 -2 3 9 12 11 10 11 10 10 11 12 13 13 13 11 11 10 9 8 9 9 8 9 10 11 12 12 12 12 11 13 13 14 14 14 15 14
-2 -4 -7 -7 -5 -3 3 -3 -1 -0 10 12 11 13 11 9 9 9 10 12 12 12 11 11 10 10 8 8 8 8 9 11 11 12 10 10 11 11 12 13 14 15 14 14
-5 -3 -6 -7 -7 -7 -5 -4 -0 10 9 11 11 11 9 9 11 11 11 12 12 11 11 11 11 10 10 9 8 8 9 10 11 11 11 9 10 11 12 13 14 15 15 14
-7 -3 -6 -6 -11 -12 -8 -4 -2 5 11 12 11 11 12 11 12 12 13 14 13 12 12 12 11 11 10 10 9 8 8 10 10 11 12 9 9 10 12 13 14 14 14 14
-5 -4 -5 -7 -6 -6 -11 -9 -2 5 7 10 10 11 11 12 12 14 13 12 12 12 10 10 11 11 11 10 9 8 8 9 10 10 11 11 9 10 11 12 13 13 14 14
-3 -4 -3 -5 -6 -5 -12 -6 -4 -6 3 8 9 12 12 14 13 13 12 13 13 13 16 13 10 11 11 11 10 9 8 9 10 10 11 12 12 11 11 11 12 13 13 13
-4 -2 1 1 -1 -2 -0 0 -2 5 8 11 11 10 12 12 12 13 13 14 14 17 17 16 11 11 11 11 10 10 10 10 10 10 11 11 12 12 12 13 13 13 13 13
-2 -2 0 3 2 0 1 1 4 6 7 11 11 11 12 11 11 11 13 17 17 16 16 16 13 11 10 10 10 10 10 10 11 11 12 11 12 13 13 13 13 14 14 13
-2 0 0 0 1 1 1 7 2 3 7 7 7 12 11 11 11 15 17 17 16 16 16 15 15 13 12 10 10 10 10 11 11 11 11 12 13 13 14 15 16 16 14 12
-3 -0 -0 -1 -1 1 5 5 10 9 9 9 10 10 7 10 15 17 16 13 14 16 16 16 15 14 13 12 11 11 11 11 12 13 13 12 13 14 15 14 14 14 15 16
-2 -2 -1 0 -1 1 4 5 6 10 8 8 10 8 9 13 17 16 12 11 11 12 11 11 12 15 15 14 13 13 14 14 14 15 14 14 13 14 12 12 12 12 12 10
-2 -0 -0 -1 1 4 3 5 4 9 10 10 11 10 11 15 16 14 11 10 10 10 10 10 10 10 11 12 13 14 14 15 13 14 14 14 13 11 12 8 6 7 13 13
-4 -2 0 -0 2 1 6 7 10 8 9 10 12 13 14 16 15 15 13 11 10 11 12 11 11 11 12 12 11 10 10 10 12 14 15 14 13 11 9 8 10 12 11 11
1 -2 -0 2 1 2 5 5 7 9 12 10 12 13 15 15 13 14 12 11 11 12 12 12 12 12 12 12 12 12 12 11 10 9 9 9 10 12 12 13 13 11 10 10
6 7 2 4 2 4 4 7 5 10 9 10 12 14 14 13 10 12 13 12 12 12 12 12 12 12 12 13 12 12 12 8 7 9 10 9 9 9 11 12 11 9 9 9
7 9 10 8 7 5 7 8 5 5 9 10 12 13 14 12 12 12 10 9 9 10 11 12 12 12 12 12 12 13 13 8 8 9 9 9 8 9 10 10 10 10 10 10
8 7 9 9 8 6 7 7 8 9 10 10 10 11 12 12 7 7 9 11 11 11 11 11 12 11 11 10 12 12 11 10 10 11 11 11 11 10 10 10 10 11 11 11
4 7 10 8 7 7 8 9 9 8 8 8 7 8 11 10 6 7 10 9 11 11 11 10 9 7 10 11 12 12 11 12 13 12 11 10 10 10 10 9 11 12 12 11
5 6 7 7 7 7 6 8 8 8 8 7 7 7 7 7 6 7 8 9 10 10 10 10 11 11 11 11 11 13 11 11 8 8 7 7 7 9 9 10 10 10 12 10
5 6 7 7 6 6 6 6 7 6 5 5 5 5 5 7 7 7 9 10 10 10 10 11 12 12 12 12 12 12 10 9 9 6 6 8 8 8 10 10 9 10 10 10
Wind_Speed
6 3 7 11 8 2 12 7 8 3 4 3 3 2 6 15 15 16 23 26 27 27 23 22 21 20 19 20 20 22 20 19 17 18 18 16 15 10 11 7 4 4 6 8
3 5 10 1 6 7 7 9 6 3 5 4 4 4 4 9 16 17 18 27 29 29 28 25 25 26 28 24 23 25 26 21 18 15 13 14 13 12 10 8 7 6 5 7
6 6 4 5 4 6 4 8 5 4 5 5 3 4 4 3 7 17 20 25 26 25 25 25 26 29 29 27 24 24 26 23 18 14 12 13 13 14 12 11 7 5 5 6
5 5 4 1 5 7 3 8 8 12 4 2 2 3 5 4 6 11 24 22 22 24 23 20 22 23 26 26 24 26 26 22 19 17 15 15 16 15 10 10 10 10 9 7
7 2 4 3 4 5 2 12 8 6 5 4 1 2 5 3 7 9 16 24 22 21 25 22 21 23 20 19 20 22 24 22 21 21 19 17 20 17 11 4 4 6 8 9
8 4 4 7 2 5 12 13 9 5 3 3 2 1 4 4 6 4 13 26 23 23 21 20 18 22 23 21 20 23 25 25 22 21 22 19 19 20 16 12 8 8 8 9
5 5 3 4 7 5 4 7 3 4 4 5 3 1 9 6 9 12 6 8 13 20 19 13 17 21 25 25 21 21 25 25 22 21 21 21 19 21 20 14 13 11 10 9
1 6 3 3 5 9 6 8 5 3 4 4 3 4 5 7 15 18 10 6 4 6 15 19 20 21 26 29 28 25 23 27 24 22 21 21 20 22 22 18 14 12 10 10
2 5 3 2 3 6 5 3 4 8 4 2 3 6 8 4 8 17 18 6 10 13 16 17 21 24 26 31 32 31 26 28 28 21 21 21 20 20 21 19 17 15 12 12
3 3 2 4 3 9 3 7 4 4 5 1 4 4 5 4 4 7 7 9 3 8 12 11 18 20 25 29 33 34 31 27 27 26 20 22 22 22 20 20 20 18 16 15
5 3 7 1 4 3 1 1 7 6 4 5 1 5 6 6 4 6 7 6 7 9 9 10 17 22 22 26 30 35 37 35 33 32 26 22 22 24 23 24 22 21 20 20
2 5 2 2 5 1 3 3 5 5 4 1 3 5 4 6 8 3 6 6 11 13 12 12 14 20 25 27 31 32 37 36 34 31 31 27 23 22 24 24 25 24 24 23
5 2 3 7 7 4 6 3 4 5 4 4 5 5 3 11 9 4 2 7 8 8 8 8 11 15 21 25 24 29 34 36 33 33 33 32 29 26 24 24 23 24 26 26
5 3 5 6 5 2 3 3 4 3 4 6 5 3 1 4 4 8 6 3 2 6 6 3 6 12 14 20 24 25 29 30 28 29 29 33 34 29 26 25 25 26 26 26
4 3 0 2 5 3 3 4 2 3 4 5 5 8 2 4 4 5 3 5 6 13 14 12 5 3 5 9 17 18 18 20 20 19 27 27 28 29 26 24 23 24 26 27
5 1 1 3 7 5 2 6 6 3 5 4 5 1 4 9 7 5 4 9 13 14 16 16 12 8 5 3 2 7 10 13 16 18 23 29 29 26 23 21 21 18 24 26
3 3 3 3 5 5 5 5 3 1 2 5 6 5 5 4 7 5 6 9 13 12 14 16 16 13 10 5 2 4 6 7 8 11 14 14 18 23 29 27 24 21 25 33
3 4 2 2 4 1 6 6 4 2 2 1 4 4 11 12 8 6 6 9 13 13 13 15 16 17 15 10 4 3 10 13 12 5 10 13 10 16 24 31 29 33 32 30
2 5 3 3 2 5 5 4 1 1 2 2 5 7 14 14 10 5 7 8 9 10 10 13 12 11 10 9 10 10 11 10 5 4 11 16 19 18 20 22 18 19 23 21
6 6 4 2 2 3 6 3 4 1 3 6 11 13 18 15 3 3 8 7 5 5 5 5 5 6 6 6 6 7 8 10 8 7 7 7 10 12 18 23 18 17 16 13
3 3 4 2 2 6 5 5 2 6 6 10 17 21 24 6 3 7 10 7 4 3 1 2 4 6 7 6 6 7 9 9 5 4 3 3 3 5 8 11 12 12 13 13
3 4 2 2 3 3 2 3 4 5 2 10 16 20 21 8 8 13 9 6 4 2 3 8 9 11 10 6 3 5 7 4 3 3 3 3 3 4 6 10 12 14 15 15
2 4 3 6 5 4 5 7 4 5 12 11 13 14 16 10 10 11 11 11 10 8 8 9 9 6 6 2 0 1 3 3 6 8 8 6 4 4 7 9 10 12 13 13
3 3 2 3 3 4 4 10 11 10 10 8 8 9 12 13 9 10 11 11 11 10 7 4 4 4 3 3 2 1 2 3 5 4 2 2 3 7 10 10 8 8 7 6
3 3 3 2 4 1 4 8 11 11 11 11 10 10 12 14 12 12 13 12 10 9 5 3 3 2 3 4 4 3 2 2 1 1 2 3 5 7 8 7 8 10 6 2
7 6 4 5 5 4 8 12 14 16 15 12 10 9 11 15 15 13 12 13 10 5 4 6 7 8 7 7 6 4 4 4 5 3 6 6 9 12 8 9 12 6 2 1
Wind_Direction
199 112 225 215 203 215 175 197 213 159 171 98 132 110 177 188 207 193 197 207 215 215 221 220 222 225 230 230 231 231 231 226 223 226 230 230 235 246 262 265 263 304 303 323
30 241 252 342 200 207 200 182 209 78 136 91 105 107 142 172 215 222 225 211 212 225 226 229 231 229 233 233 235 234 233 226 222 227 241 244 247 240 249 243 257 279 295 315
173 237 243 197 242 172 207 195 183 164 125 52 82 350 175 182 212 227 228 232 229 223 232 237 233 235 234 234 232 234 233 229 225 227 235 238 227 230 242 248 246 267 291 296
229 266 247 283 239 156 252 207 170 138 101 149 58 274 252 184 222 212 221 219 220 222 226 232 228 218 227 234 238 237 234 229 226 226 230 231 227 235 246 255 249 263 271 281
245 208 246 278 222 155 349 100 115 104 90 117 249 97 260 150 229 215 216 221 222 219 227 228 227 221 215 217 223 228 233 228 226 227 230 235 233 234 245 255 236 253 251 267
243 268 255 215 99 147 144 78 45 61 86 1 290 84 280 202 203 200 210 219 222 216 210 222 227 228 217 218 225 233 235 231 226 227 229 237 239 229 238 239 243 251 258 268
313 241 263 168 79 20 85 71 28 34 12 224 34 80 246 259 240 224 179 258 262 226 220 212 219 226 226 228 239 250 239 235 234 233 237 237 238 232 236 246 241 249 257 256
144 329 204 192 181 175 185 147 149 195 182 253 62 240 259 235 265 288 299 313 272 230 225 232 223 230 230 233 242 250 251 240 238 240 240 240 243 240 241 250 242 244 249 249
152 285 287 169 173 129 184 143 173 104 359 55 277 294 305 271 306 297 292 3 296 248 234 222 220 224 229 232 236 245 253 251 240 246 244 240 242 242 240 242 245 250 252 241
204 334 259 283 106 45 135 147 74 18 132 260 281 285 247 65 314 334 347 21 343 267 256 267 231 236 232 240 237 240 245 249 248 242 252 246 245 244 241 245 248 245 247 247
141 125 291 32 29 176 83 79 54 108 102 154 189 267 212 179 94 12 56 75 9 343 309 274 241 240 246 249 245 237 243 248 244 243 245 250 250 250 250 248 248 248 251 252
189 143 257 283 298 279 146 98 130 119 213 100 138 271 153 132 137 153 299 319 336 331 304 272 246 235 235 240 246 243 242 248 253 252 245 250 252 255 256 257 255 254 256 259
188 19 38 353 347 14 59 62 101 111 102 191 135 255 79 125 147 169 307 325 337 337 324 274 233 219 226 229 238 244 246 248 250 252 247 247 251 255 260 263 264 264 263 263
107 91 141 180 214 236 315 132 193 96 112 166 226 275 23 58 19 19 8 27 343 6 17 50 218 220 211 214 227 238 245 248 248 254 257 250 251 255 260 267 273 274 272 268
91 92 37 265 275 231 291 11 164 169 170 141 227 198 125 157 84 22 27 38 39 41 40 46 74 142 225 230 223 231 245 252 252 243 248 255 255 258 262 268 276 281 280 272
354 125 65 353 355 8 100 53 70 53 123 84 105 359 152 100 104 95 53 56 49 38 41 45 50 58 62 90 296 259 258 265 268 258 245 247 252 251 259 263 258 270 299 287
55 102 59 289 352 3 6 356 301 200 174 155 153 220 115 101 122 138 99 82 74 59 51 51 50 51 63 66 131 168 185 199 225 250 253 253 262 254 259 265 271 267 311 299
120 87 59 236 19 77 242 327 202 108 81 90 61 108 143 152 141 132 124 104 96 85 69 59 66 67 64 64 44 290 256 264 256 233 246 221 241 277 248 247 255 268 302 291
108 115 72 116 164 293 323 339 93 236 239 13 132 128 133 132 125 139 164 120 106 94 88 73 62 58 53 48 39 29 23 11 351 274 248 275 271 279 234 236 271 283 280 290
69 74 112 106 121 186 243 296 2 118 311 178 163 152 144 148 115 249 149 112 105 111 97 78 63 38 15 14 13 14 2 342 337 322 323 312 300 285 276 271 272 279 287 292
44 21 126 134 179 285 256 306 31 87 237 173 173 167 160 155 161 138 148 148 123 82 18 303 324 331 338 329 343 350 349 359 5 18 3 340 325 291 284 271 270 274 276 274
144 120 161 91 79 266 337 22 150 218 152 175 169 176 181 159 140 155 157 163 170 164 288 296 308 318 323 335 329 325 332 8 63 57 11 327 280 273 258 268 277 276 276 278
63 171 185 169 214 264 296 257 248 139 139 145 163 185 198 172 165 168 178 190 204 231 261 284 302 311 327 10 24 319 314 270 307 318 318 317 302 284 280 282 283 290 284 278
337 160 121 72 283 322 58 136 135 132 123 132 143 148 176 195 202 212 207 207 220 227 239 270 323 8 338 328 327 345 261 270 291 302 320 322 317 310 319 301 290 306 304 289
212 146 154 276 272 254 207 185 178 170 169 172 184 200 212 213 222 223 221 209 195 192 200 242 300 339 0 347 315 287 265 246 236 287 320 326 298 294 298 292 297 308 297 298
193 181 153 215 192 198 224 213 198 186 184 184 196 214 223 215 203 192 184 174 176 193 229 257 273 287 296 300 303 288 247 247 262 291 331 319 315 312 325 329 311 281 222 158
Height
1520 1527 1530 1522 1523 1520 1523 1527 1532 1530 1526 1529 1533 1536 1537 1539 1543 1542 1544 1546 1548 1548 1550 1554 1556 1560 1563 1565 1568 1570 1573 1576 1578 1580 1581 1582 1583 1585 1586 1587 1588 1588 1587 1587
1524 1529 1512 1515 1517 1520 1520 1526 1532 1527 1525 1527 1532 1536 1535 1538 1540 1542 1543 1541 1543 1547 1549 1550 1552 1557 1559 1562 1564 1567 1570 1573 1575 1577 1579 1580 1582 1584 1586 1587 1587 1587 1587 1587
1526 1517 1509 1513 1513 1519 1520 1523 1525 1527 1527 1531 1533 1543 1537 1535 1537 1539 1540 1540 1541 1540 1542 1545 1548 1552 1556 1558 1560 1563 1566 1570 1573 1575 1577 1579 1581 1583 1585 1586 1587 1587 1587 1588
1518 1508 1507 1509 1512 1512 1521 1508 1514 1525 1534 1550 1538 1562 1540 1534 1533 1532 1533 1533 1534 1536 1538 1542 1544 1547 1552 1555 1559 1561 1564 1568 1571 1574 1575 1577 1579 1582 1584 1585 1585 1586 1586 1587
1515 1508 1508 1511 1504 1504 1515 1507 1517 1526 1540 1543 1543 1554 1536 1532 1533 1529 1529 1529 1531 1533 1534 1536 1541 1544 1549 1553 1556 1559 1562 1566 1569 1571 1574 1576 1578 1581 1583 1584 1584 1585 1585 1586
1509 1503 1502 1499 1497 1500 1508 1515 1528 1534 1542 1558 1547 1549 1540 1533 1523 1520 1521 1524 1526 1530 1533 1534 1538 1543 1547 1550 1553 1557 1560 1563 1567 1569 1572 1574 1576 1579 1582 1583 1584 1584 1585 1585
1510 1503 1494 1494 1505 1506 1509 1526 1565 1567 1569 1568 1548 1553 1536 1516 1511 1511 1521 1523 1525 1528 1533 1535 1536 1539 1543 1546 1550 1553 1556 1560 1564 1567 1570 1572 1574 1576 1579 1581 1582 1583 1583 1584
1527 1523 1494 1491 1494 1507 1510 1518 1548 1551 1581 1562 1548 1552 1528 1509 1508 1507 1514 1522 1524 1525 1528 1530 1532 1535 1539 1543 1547 1550 1553 1556 1560 1563 1566 1569 1571 1573 1575 1578 1580 1581 1581 1582
1523 1515 1489 1488 1487 1491 1509 1523 1521 1556 1565 1563 1557 1539 1517 1509 1510 1505 1508 1517 1518 1521 1522 1524 1525 1529 1533 1537 1541 1544 1549 1553 1558 1560 1563 1566 1568 1570 1573 1576 1578 1579 1580 1582
1506 1522 1494 1490 1487 1492 1495 1508 1530 1544 1568 1566 1558 1552 1543 1521 1514 1508 1511 1517 1520 1521 1523 1523 1524 1526 1529 1532 1537 1541 1544 1549 1554 1559 1561 1563 1566 1568 1570 1573 1575 1576 1578 1580
1503 1514 1504 1492 1500 1504 1508 1513 1531 1540 1552 1567 1567 1549 1520 1518 1517 1515 1516 1518 1518 1520 1520 1521 1521 1524 1527 1530 1532 1536 1540 1543 1548 1554 1557 1560 1562 1565 1568 1569 1571 1574 1576 1577
1501 1515 1521 1505 1497 1497 1496 1505 1518 1538 1550 1557 1553 1541 1513 1513 1516 1518 1517 1518 1518 1518 1517 1516 1518 1521 1524 1526 1529 1531 1534 1538 1541 1547 1553 1555 1558 1561 1563 1565 1567 1570 1571 1572
1498 1518 1534 1523 1508 1497 1503 1506 1514 1524 1534 1548 1549 1539 1510 1515 1516 1519 1520 1520 1520 1520 1515 1514 1514 1516 1518 1521 1524 1528 1530 1533 1538 1542 1546 1549 1553 1556 1559 1561 1563 1565 1566 1567
1494 1519 1523 1538 1520 1512 1507 1504 1511 1514 1533 1544 1540 1520 1510 1513 1515 1520 1522 1522 1523 1521 1517 1514 1514 1515 1516 1518 1521 1524 1527 1530 1534 1537 1541 1544 1548 1552 1555 1558 1560 1562 1563 1563
1497 1517 1515 1512 1512 1510 1505 1507 1505 1508 1515 1517 1513 1520 1511 1512 1515 1519 1521 1523 1521 1518 1516 1513 1513 1515 1516 1518 1521 1523 1524 1526 1528 1532 1534 1537 1541 1545 1548 1550 1553 1556 1558 1558
1502 1520 1515 1512 1512 1509 1509 1507 1508 1510 1514 1516 1516 1512 1509 1514 1517 1520 1521 1522 1517 1516 1516 1516 1515 1515 1517 1521 1521 1523 1523 1524 1525 1526 1530 1533 1535 1537 1541 1542 1545 1549 1552 1553
1510 1519 1525 1527 1521 1513 1521 1511 1508 1507 1507 1510 1516 1508 1510 1516 1518 1521 1522 1522 1520 1520 1520 1519 1518 1518 1518 1520 1521 1521 1522 1524 1523 1525 1527 1529 1531 1531 1535 1536 1534 1538 1544 1548
1513 1523 1532 1532 1524 1539 1515 1503 1504 1505 1505 1503 1504 1508 1510 1515 1519 1522 1524 1523 1524 1524 1524 1524 1523 1523 1523 1523 1523 1524 1523 1523 1525 1527 1527 1528 1527 1528 1528 1527 1527 1533 1539 1540
1507 1521 1537 1537 1545 1529 1510 1506 1507 1507 1509 1505 1507 1509 1512 1517 1521 1524 1525 1525 1525 1526 1528 1528 1527 1527 1526 1526 1524 1524 1523 1522 1523 1525 1526 1525 1523 1524 1524 1525 1529 1532 1535 1534
1510 1513 1524 1543 1535 1539 1517 1505 1503 1502 1523 1505 1505 1509 1512 1517 1527 1523 1522 1524 1525 1528 1529 1529 1529 1529 1529 1527 1526 1526 1525 1523 1522 1522 1522 1523 1522 1523 1524 1527 1528 1531 1531 1529
1524 1527 1533 1541 1537 1527 1508 1504 1503 1528 1526 1502 1505 1509 1513 1517 1519 1520 1524 1527 1528 1529 1529 1530 1530 1530 1530 1528 1527 1525 1523 1523 1521 1520 1523 1523 1523 1523 1523 1524 1525 1525 1524 1525
1520 1528 1534 1539 1535 1529 1506 1505 1511 1507 1502 1503 1506 1510 1514 1518 1520 1523 1526 1528 1528 1529 1529 1529 1530 1530 1529 1527 1526 1524 1522 1522 1521 1522 1522 1521 1522 1521 1522 1521 1521 1519 1519 1518
1521 1518 1523 1523 1523 1509 1507 1505 1503 1503 1503 1506 1508 1511 1515 1519 1521 1523 1525 1527 1528 1529 1529 1529 1529 1528 1527 1525 1525 1524 1524 1523 1524 1523 1523 1522 1521 1520 1520 1519 1518 1516 1515 1515
1511 1511 1515 1515 1510 1507 1506 1506 1506 1507 1507 1509 1511 1513 1516 1518 1520 1522 1524 1526 1528 1529 1529 1529 1528 1527 1526 1525 1525 1524 1524 1525 1524 1523 1522 1521 1520 1519 1517 1515 1514 1513 1510 1509
1510 1510 1513 1514 1508 1508 1507 1507 1507 1508 1509 1511 1513 1514 1516 1517 1519 1521 1522 1525 1526 1527 1528 1528 1528 1527 1526 1525 1524 1525 1525 1523 1523 1523 1522 1521 1520 1518 1516 1514 1512 1510 1508 1506
1504 1505 1512 1514 1504 1505 1504 1506 1507 1508 1509 1511 1512 1513 1514 1516 1518 1520 1522 1524 1526 1527 1528 1528 1527 1526 1526 1525 1525 1524 1523 1523 1523 1522 1522 1521 1519 1516 1515 1514 1511 1510 1509 1508